[[{"header":{"parameterUnit":"m.s-1","parameterCategory":1,"la1":30.2991,"la2":30.254,"lo1":-89.0895,"lo2":-89.0444,"dy":0.0017,"dx":0.0017,"nx":28,"ny":28,"refTime":"2025-04-16T09:00:00:Z","depth":0,"parameterNumber":2,"parameterNumberName":"U-component_of_WINDS"},"data":[0,0,0,0,0,0,0,0,0,0,0,0,0,0,0,0,0,0,0,0,0,0,0,0,0,0,0,0,0,0,0,0,0,0,0,0,0,0,0,0,0,0,0,0,0,0,0,0,0,0,0,0,0,0,0,0,0,0,0.4276,0.4277,0,0.4342,0.4342,0.4343,0.4394,0.4395,0.4395,0.4396,0.446,0.4461,0.4462,0,0,0,0,0,0,0,0,0,0,0,0,0,0.4192,0.4193,0.4276,0.4277,0.4278,0.4342,0.4342,0.4343,0.4394,0.4395,0.4395,0.4396,0.4459,0.4461,0.4462,0,0,0,0,0,0,0,0,0,0,0,0,0,0.424,0.4194,0.4276,0.4311,0.4315,0.4341,0.4342,0.4344,0.4394,0.4395,0.4396,0.4396,0.4459,0.4461,0.4462,0.4459,0,0,0.4468,0.4469,0,0,0,0,0,0,0,0,0.4237,0.4243,0.4305,0.4308,0.4313,0.4361,0.4336,0.4382,0.4394,0.4364,0.4396,0.4397,0.4426,0.443,0.4441,0.4462,0.4465,0.4468,0.4469,0.447,0.4471,0,0,0,0,0,0,0,0.4234,0.4241,0.4302,0.4306,0.431,0.4322,0.433,0.4345,0.439,0.4366,0.437,0.4378,0.4428,0.4439,0.4443,0.4465,0.4468,0.447,0.4471,0.4472,0.4487,0.4487,0,0,0,0,0,0,0.4226,0.4237,0.43,0.4304,0.4276,0.4323,0.4332,0.4344,0.439,0.4397,0.4377,0.438,0.4436,0.4441,0.4445,0.4444,0.447,0.4472,0.4473,0.4488,0.4487,0.4486,0,0,0,0,0,0,0.4224,0.4231,0.4297,0.4272,0.4281,0.4324,0.4338,0.4345,0.4356,0.4398,0.4405,0.438,0.4436,0.4443,0.4455,0.4447,0.4473,0.4474,0.4489,0.4488,0.4487,0.4442,0,0,0,0,0,0,0.4221,0.423,0.4229,0.4271,0.4282,0.4307,0.4337,0.4346,0.436,0.4364,0.4403,0.441,0.4437,0.4452,0.4457,0.445,0.4476,0.449,0.4488,0.4487,0.4444,0.444,0.4435,0,0,0,0,0,0.4218,0.4213,0.4229,0.4236,0.4283,0.4306,0.4312,0.4345,0.4359,0.4358,0.4385,0.4409,0.4448,0.4453,0.4459,0.4453,0.449,0.4489,0.4487,0.4446,0.444,0.4435,0,0,0,0,0,0,0.4167,0.4219,0.4237,0.4246,0.4271,0.4315,0.4315,0.4338,0.4359,0.4362,0.4401,0.4409,0.4417,0.4437,0.4442,0.4452,0.4472,0.4472,0.4439,0.4434,0.4429,0.4424,0.4477,0,0,0,0,0,0.4157,0.4173,0.4217,0.422,0.4232,0.4271,0.4283,0.4306,0.4334,0.4344,0.4372,0.4396,0.4415,0.4425,0.4444,0.4448,0.4457,0.4446,0.4442,0.4438,0.4437,0.444,0.4436,0.4481,0.4481,0.4481,0,0,0.4136,0.4167,0.4174,0.4211,0.4233,0.4248,0.428,0.4294,0.4305,0.4346,0.436,0.4381,0.4411,0.442,0.4425,0.4436,0.4427,0.4436,0.4433,0.4433,0.4438,0.4434,0.443,0.448,0.448,0.4481,0,0,0.4105,0.413,0.4136,0.4158,0.4192,0.4219,0.422,0.426,0.4276,0.4291,0.4323,0.4336,0.4366,0.4387,0.4401,0.438,0.4402,0.4385,0.4361,0.4364,0.436,0.4357,0.4349,0.4346,0.4384,0.4384,0.4384,0,0.4074,0.4098,0.4136,0.4148,0.4164,0.4204,0.4209,0.4229,0.4267,0.4276,0.4289,0.4328,0.4351,0.4365,0.436,0.437,0.4373,0.438,0.4358,0.4356,0.4353,0.4346,0.4343,0.4381,0.4382,0.4382,0.4382,0,0.4059,0.4075,0.4076,0.4113,0.4128,0.4137,0.4175,0.4187,0.4209,0.4234,0.4249,0.4279,0.4304,0.431,0.4331,0.4327,0.4333,0.4351,0.4372,0.4346,0.434,0.4337,0.4378,0.4379,0.438,0.438,0,0,0.3996,0.4055,0.4055,0.4072,0.4114,0.4126,0.4137,0.4164,0.4173,0.4198,0.4207,0.4233,0.4251,0.4267,0.4292,0.4294,0.4276,0.4313,0.4314,0.4304,0.4272,0.4257,0.4253,0.4291,0.4291,0.4291,0.427,0,0.3971,0.3994,0.4028,0.4039,0.4054,0.4093,0.4103,0.4129,0.4153,0.4169,0.4195,0.4212,0.4235,0.4245,0.425,0.4277,0.4269,0.4279,0.43,0.43,0.429,0.425,0.4234,0.4213,0.4267,0.4267,0.4267,0,0.3944,0.3969,0.3981,0.4023,0.403,0.4038,0.4066,0.4081,0.4111,0.4129,0.4148,0.4175,0.4188,0.4208,0.4226,0.4232,0.4243,0.4258,0.4258,0.426,0.4281,0.425,0.4207,0.4203,0.4263,0.4264,0.4264,0,0.3896,0.3932,0.3945,0.3959,0.4007,0.4012,0.4032,0.4064,0.4078,0.4102,0.4111,0.4136,0.4149,0.4168,0.4201,0.4212,0.4216,0.4238,0.4229,0.4228,0.4227,0.4226,0.4183,0.4236,0.4236,0.4236,0.4236,0,0.3864,0.387,0.3924,0.3931,0.394,0.398,0.3986,0.401,0.4038,0.405,0.4086,0.4096,0.414,0.4156,0.4182,0.4193,0.4199,0.4213,0.4219,0.4209,0.4207,0.4215,0.4217,0.4235,0.4235,0.4235,0.4235,0,0.3811,0.3847,0.3864,0.3909,0.3921,0.3924,0.3963,0.3971,0.3998,0.4014,0.4019,0.4061,0.4082,0.4117,0.4147,0.4165,0.4171,0.4183,0.416,0.4164,0.4153,0.4153,0.4113,0.411,0.4165,0.4164,0.4164,0,0.3787,0.3793,0.3839,0.3851,0.387,0.3888,0.3903,0.3943,0.3957,0.3993,0.3997,0.4021,0.4042,0.4073,0.4105,0.4129,0.4141,0.4126,0.4145,0.4134,0.414,0.4139,0.414,0.4121,0.412,0.4119,0.4119,0,0.3741,0.3759,0.378,0.3807,0.3825,0.3848,0.3873,0.388,0.3926,0.394,0.3962,0.3978,0.4011,0.4033,0.4062,0.4082,0.4108,0.4113,0.4112,0.4101,0.4087,0.4094,0.4147,0.4113,0.4114,0.4114,0.4114,0.4115,0.3701,0.3708,0.3742,0.3765,0.3788,0.3811,0.3822,0.3851,0.387,0.39,0.3923,0.3943,0.3975,0.4016,0.4035,0.4051,0.4063,0.4062,0.4061,0.406,0.4056,0.4086,0.4057,0.4057,0.4057,0.4057,0.4057,0,0.3656,0.368,0.3701,0.3735,0.3753,0.3778,0.3807,0.3819,0.3838,0.3865,0.3886,0.3912,0.3934,0.397,0.3995,0.4001,0.4014,0.4007,0.4006,0.401,0.4044,0.4042,0.3996,0.3996,0.3996,0.3996,0.3996,0.3996,0.3634,0.3648,0.367,0.3696,0.3721,0.3742,0.3756,0.3778,0.38,0.3828,0.3847,0.3871,0.3902,0.393,0.3952,0.3962,0.3969,0.3958,0.3971,0.4002,0.4008,0.4013,0.4011,0.396,0.396,0.3936,0.3936,0.3936]},{"header":{"parameterUnit":"m.s-1","parameterCategory":1,"la1":30.2991,"la2":30.254,"lo1":-89.0895,"lo2":-89.0444,"dy":0.0017,"dx":0.0017,"nx":28,"ny":28,"refTime":"2025-04-16T09:00:00:Z","depth":0,"parameterNumber":3,"parameterNumberName":"V-component_of_WINDS"},"data":[0,0,0,0,0,0,0,0,0,0,0,0,0,0,0,0,0,0,0,0,0,0,0,0,0,0,0,0,0,0,0,0,0,0,0,0,0,0,0,0,0,0,0,0,0,0,0,0,0,0,0,0,0,0,0,0,0,0,-6.1325,-6.1327,0,-6.1439,-6.144,-6.1442,-6.1352,-6.1349,-6.1345,-6.1341,-6.1452,-6.1459,-6.1465,0,0,0,0,0,0,0,0,0,0,0,0,0,-6.1026,-6.1032,-6.1325,-6.1327,-6.1328,-6.1439,-6.144,-6.1442,-6.1353,-6.1348,-6.1344,-6.1339,-6.145,-6.1458,-6.1466,0,0,0,0,0,0,0,0,0,0,0,0,0,-6.1149,-6.1034,-6.1325,-6.1297,-6.1296,-6.1438,-6.144,-6.1442,-6.1354,-6.1348,-6.1343,-6.1337,-6.1448,-6.1457,-6.1467,-6.1641,0,0,-6.1497,-6.1501,0,0,0,0,0,0,0,0,-6.1143,-6.1161,-6.13,-6.1299,-6.1298,-6.1376,-6.1375,-6.1509,-6.1355,-6.1332,-6.1341,-6.1334,-6.1431,-6.1442,-6.1476,-6.1646,-6.1651,-6.1497,-6.1503,-6.1508,-6.151,0,0,0,0,0,0,0,-6.1134,-6.1155,-6.137,-6.1302,-6.1301,-6.1277,-6.1289,-6.14,-6.1412,-6.1333,-6.1327,-6.1342,-6.1429,-6.1466,-6.1478,-6.1653,-6.1497,-6.1506,-6.1512,-6.1516,-6.1972,-6.1978,0,0,0,0,0,0,-6.1129,-6.1149,-6.1366,-6.1373,-6.1205,-6.1287,-6.13,-6.1357,-6.141,-6.1413,-6.1347,-6.1338,-6.1453,-6.1466,-6.1481,-6.1689,-6.1508,-6.1517,-6.1522,-6.1966,-6.1973,-6.198,0,0,0,0,0,0,-6.1123,-6.1149,-6.1362,-6.126,-6.1285,-6.1299,-6.1363,-6.1362,-6.1399,-6.1421,-6.1422,-6.1383,-6.1449,-6.1467,-6.1602,-6.1691,-6.1521,-6.153,-6.1958,-6.1968,-6.1977,-6.2106,0,0,0,0,0,0,-6.1115,-6.1148,-6.1215,-6.1262,-6.1291,-6.1483,-6.1368,-6.1368,-6.1416,-6.1405,-6.1455,-6.1457,-6.1446,-6.1588,-6.1612,-6.1702,-6.1538,-6.195,-6.1963,-6.1974,-6.2094,-6.2119,-6.214,0,0,0,0,0,-6.1104,-6.1246,-6.1219,-6.1246,-6.1376,-6.1489,-6.1505,-6.149,-6.1424,-6.1491,-6.1505,-6.1456,-6.1678,-6.1603,-6.1629,-6.1723,-6.1945,-6.1959,-6.1973,-6.2084,-6.2114,-6.2139,0,0,0,0,0,0,-6.1208,-6.1252,-6.1222,-6.1384,-6.1434,-6.1473,-6.1558,-6.1522,-6.159,-6.1577,-6.1553,-6.1565,-6.1708,-6.1728,-6.1644,-6.1894,-6.18,-6.182,-6.1876,-6.1905,-6.1927,-6.1919,-6.1546,0,0,0,0,0,-6.125,-6.134,-6.1372,-6.1511,-6.1538,-6.1544,-6.1593,-6.1577,-6.1626,-6.1646,-6.167,-6.1719,-6.1799,-6.1853,-6.1928,-6.2096,-6.2105,-6.2174,-6.2197,-6.2215,-6.2233,-6.2323,-6.2354,-6.2026,-6.2026,-6.2026,0,0,-6.1337,-6.1372,-6.143,-6.1533,-6.157,-6.1662,-6.1562,-6.1663,-6.1731,-6.1661,-6.1791,-6.181,-6.1863,-6.2015,-6.2083,-6.2037,-6.2325,-6.2233,-6.2248,-6.2256,-6.2341,-6.2372,-6.2399,-6.2036,-6.2034,-6.2033,0,0,-6.1543,-6.1579,-6.1699,-6.1738,-6.1795,-6.1798,-6.1827,-6.1873,-6.1884,-6.2014,-6.1963,-6.2042,-6.2181,-6.2221,-6.226,-6.2481,-6.2437,-6.2506,-6.2626,-6.2714,-6.274,-6.2762,-6.2841,-6.287,-6.2523,-6.2523,-6.2523,0,-6.1644,-6.1782,-6.1764,-6.187,-6.1917,-6.186,-6.198,-6.2018,-6.2097,-6.2129,-6.2076,-6.2251,-6.2282,-6.2443,-6.2497,-6.253,-6.2561,-6.25,-6.2738,-6.276,-6.2781,-6.2856,-6.2886,-6.2531,-6.253,-6.2529,-6.2529,0,-6.1903,-6.1999,-6.2089,-6.2168,-6.2225,-6.2337,-6.2336,-6.2394,-6.2374,-6.2382,-6.2514,-6.255,-6.2632,-6.2668,-6.2648,-6.2827,-6.2796,-6.2741,-6.2646,-6.2821,-6.2891,-6.2919,-6.2543,-6.254,-6.2537,-6.2535,0,0,-6.2177,-6.2246,-6.2279,-6.2315,-6.2374,-6.2447,-6.2556,-6.2638,-6.2689,-6.2744,-6.2835,-6.2954,-6.2904,-6.2948,-6.2931,-6.3009,-6.3182,-6.2944,-6.2945,-6.2987,-6.338,-6.3421,-6.3455,-6.3153,-6.3158,-6.3163,-6.3375,0,-6.2386,-6.2579,-6.2566,-6.2747,-6.2835,-6.2782,-6.2877,-6.2923,-6.2933,-6.3008,-6.3018,-6.3104,-6.3031,-6.3057,-6.3131,-6.3145,-6.326,-6.3129,-6.3236,-6.324,-6.3225,-6.3491,-6.3535,-6.3734,-6.3402,-6.3407,-6.341,0,-6.2655,-6.2723,-6.2913,-6.2959,-6.2995,-6.3082,-6.3155,-6.3228,-6.3278,-6.328,-6.333,-6.33,-6.3409,-6.3312,-6.3461,-6.3372,-6.3415,-6.3428,-6.3435,-6.3445,-6.3336,-6.3508,-6.3797,-6.3827,-6.3453,-6.345,-6.3447,0,-6.2837,-6.2975,-6.3106,-6.3138,-6.3195,-6.3257,-6.3283,-6.3327,-6.3377,-6.3441,-6.3473,-6.3548,-6.3589,-6.3647,-6.3638,-6.3568,-6.3789,-6.3691,-6.3793,-6.3794,-6.3842,-6.384,-6.4143,-6.387,-6.3869,-6.3869,-6.3868,0,-6.3072,-6.319,-6.3189,-6.327,-6.3401,-6.3384,-6.3513,-6.3532,-6.3572,-6.3655,-6.3612,-6.369,-6.3674,-6.3751,-6.3744,-6.3868,-6.3887,-6.3891,-6.3888,-6.3895,-6.3895,-6.3923,-6.3909,-6.3877,-6.3875,-6.3873,-6.3872,0,-6.3297,-6.3301,-6.3441,-6.3484,-6.3497,-6.3592,-6.3627,-6.3703,-6.371,-6.3815,-6.3838,-6.3849,-6.3937,-6.3934,-6.4034,-6.403,-6.4183,-6.4163,-6.4167,-6.4163,-6.4265,-6.4255,-6.4597,-6.4641,-6.4339,-6.4342,-6.4344,0,-6.3447,-6.3537,-6.359,-6.3643,-6.3674,-6.376,-6.3811,-6.3798,-6.3852,-6.3916,-6.3984,-6.4069,-6.4137,-6.428,-6.4296,-6.4372,-6.4354,-6.4468,-6.4365,-6.437,-6.4356,-6.4351,-6.436,-6.4489,-6.4492,-6.4495,-6.4497,0,-6.3712,-6.371,-6.3786,-6.3864,-6.3927,-6.3987,-6.4042,-6.4087,-6.4079,-6.4143,-6.4234,-6.4287,-6.4389,-6.4474,-6.4547,-6.4571,-6.4534,-6.453,-6.4557,-6.4566,-6.4565,-6.4567,-6.4222,-6.4522,-6.4519,-6.4518,-6.4516,-6.4515,-6.3905,-6.3982,-6.4032,-6.4119,-6.4159,-6.4211,-6.4285,-6.4302,-6.4378,-6.4462,-6.4449,-6.4551,-6.4597,-6.4692,-6.4723,-6.4802,-6.4761,-6.4801,-6.4811,-6.4821,-6.4833,-6.4552,-6.4815,-6.4814,-6.4813,-6.4813,-6.4812,0,-6.4168,-6.4198,-6.4278,-6.4357,-6.4425,-6.4384,-6.4443,-6.4502,-6.4593,-6.464,-6.4708,-6.4813,-6.4894,-6.4917,-6.4995,-6.5053,-6.5038,-6.5074,-6.507,-6.5076,-6.4865,-6.4833,-6.5086,-6.5086,-6.5086,-6.5086,-6.5086,-6.5086,-6.4314,-6.4443,-6.4447,-6.4595,-6.4623,-6.4725,-6.4761,-6.4809,-6.4847,-6.4967,-6.5035,-6.5049,-6.5087,-6.5167,-6.524,-6.5244,-6.5275,-6.5319,-6.5316,-6.5119,-6.5091,-6.5065,-6.5035,-6.5326,-6.5326,-6.5521,-6.5523,-6.5524]}]]